Warroad, MN

2:19 AM CDT on October 22, 2017 (GMT -0500)
Warroad International-Carlson

Weather History for KRRT - May, 2014

Change the Weather History Date:

Saturday, May 3, 2014

  Actual Average Record
Temperature  
Mean Temperature 37 °F -  
Max Temperature 42 °F 59 °F 86 °F (1980)
Min Temperature 32 °F 33 °F 16 °F (1967)
Degree Days  
Heating Degree Days 28    
Moisture  
Dew Point 31 °F    
Average Humidity 78    
Maximum Humidity 87    
Minimum Humidity 53    
Precipitation  
Precipitation 0.00 in - - ()
Sea Level Pressure  
Sea Level Pressure 29.83 in    
Wind  
Wind Speed 9 mph (WNW)    
Max Wind Speed 22 mph    
Max Gust Speed 33 mph    
Visibility 10 miles    
Events      
Averages and records for this station are not official NWS values.
T = Trace of Precipitation, MM = Missing Value Source: NWS Daily Summary

Daily Weather History Graph

Daily Weather History Graph

Search for Another Location

Airport or City:

Trip Planner

Search our weather history database for the weather conditions in past years. The results will help you decide how hot, cold, wet, or windy it might be!

Date:

Astronomy

May. 03, 2014 Rise Set
Actual Time 5:57 AM CDT 8:40 PM CDT
Civil Twilight 5:21 AM CDT 9:16 PM CDT
Nautical Twilight 4:35 AM CDT 10:02 PM CDT
Astronomical Twilight 3:41 AM CDT 10:57 PM CDT
Moon 9:23 AM CDT (5/3) 12:06 AM CDT (5/3)
Length of Visible Light 15h 54m
Length of Day
14h 42m
Waxing Crescent, 20% of the Moon is Illuminated
May 3
Waxing Crescent
May 6
First Quarter
May 14
Full
May 21
Last Quarter
May 28
New

Hourly Weather History & Observations

Time (CDT) Temp. Windchill Dew Point Humidity Pressure Visibility Wind Dir Wind Speed Gust Speed Precip Events Conditions
12:01 AM 37.4 °F 32.1 °F 33.8 °F 87% 29.72 in 10.0 mi West 6.9 mph - N/A   Clear
12:21 AM 37.4 °F 31.4 °F 33.8 °F 87% 29.72 in 10.0 mi West 8.1 mph - N/A   Clear
12:41 AM 35.6 °F 30.7 °F 32.0 °F 87% 29.72 in 10.0 mi West 5.8 mph - N/A   Scattered Clouds
1:01 AM 35.6 °F 29.2 °F 32.0 °F 87% 29.73 in 10.0 mi West 8.1 mph - N/A   Mostly Cloudy
1:21 AM 35.6 °F 29.9 °F 32.0 °F 87% 29.73 in 10.0 mi West 6.9 mph - N/A   Overcast
1:41 AM 35.6 °F 29.9 °F 32.0 °F 87% 29.73 in 10.0 mi West 6.9 mph - N/A   Mostly Cloudy
2:01 AM 35.6 °F 29.2 °F 32.0 °F 87% 29.73 in 10.0 mi WNW 8.1 mph - N/A   Mostly Cloudy
2:21 AM 35.6 °F 29.2 °F 32.0 °F 87% 29.73 in 10.0 mi WNW 8.1 mph - N/A   Overcast
2:41 AM 37.4 °F 31.4 °F 32.0 °F 81% 29.73 in 10.0 mi WNW 8.1 mph - N/A   Overcast
3:01 AM 37.4 °F 31.4 °F 32.0 °F 81% 29.74 in 10.0 mi WNW 8.1 mph - N/A   Overcast
3:21 AM 37.4 °F 32.1 °F 32.0 °F 81% 29.74 in 10.0 mi West 6.9 mph - N/A   Overcast
3:41 AM 37.4 °F 32.1 °F 32.0 °F 81% 29.74 in 10.0 mi West 6.9 mph - N/A   Overcast
4:01 AM 37.4 °F 32.8 °F 32.0 °F 81% 29.74 in 10.0 mi West 5.8 mph - N/A   Overcast
4:21 AM 37.4 °F 32.8 °F 32.0 °F 81% 29.75 in 10.0 mi West 5.8 mph - N/A   Overcast
4:41 AM 35.6 °F 30.7 °F 32.0 °F 87% 29.75 in 10.0 mi West 5.8 mph - N/A   Overcast
5:01 AM 35.6 °F 30.7 °F 30.2 °F 81% 29.75 in 10.0 mi West 5.8 mph - N/A   Scattered Clouds
5:21 AM 33.8 °F 28.6 °F 30.2 °F 87% 29.76 in 10.0 mi West 5.8 mph - N/A   Scattered Clouds
5:41 AM 35.6 °F 30.7 °F 30.2 °F 81% 29.76 in 10.0 mi West 5.8 mph - N/A   Mostly Cloudy
6:01 AM 35.6 °F 30.7 °F 32.0 °F 87% 29.76 in 10.0 mi West 5.8 mph - N/A   Overcast
6:21 AM 35.6 °F 31.7 °F 32.0 °F 87% 29.76 in 10.0 mi WNW 4.6 mph - N/A   Overcast
6:41 AM 35.6 °F 29.9 °F 30.2 °F 81% 29.77 in 10.0 mi WNW 6.9 mph - N/A   Overcast
7:01 AM 35.6 °F 28.6 °F 32.0 °F 87% 29.78 in 7.0 mi WNW 9.2 mph - N/A   Overcast
7:21 AM 33.8 °F 27.0 °F 30.2 °F 87% 29.78 in 5.0 mi NW 8.1 mph - N/A   Overcast
7:41 AM 35.6 °F 29.2 °F 30.2 °F 81% 29.79 in 10.0 mi NW 8.1 mph - N/A   Overcast
8:01 AM 35.6 °F 29.2 °F 32.0 °F 87% 29.79 in 10.0 mi NW 8.1 mph - N/A   Overcast
8:21 AM 35.6 °F 28.6 °F 32.0 °F 87% 29.80 in 10.0 mi WNW 9.2 mph - N/A   Overcast
9:01 AM 35.6 °F 30.7 °F 30.2 °F 81% 29.81 in 10.0 mi NW 5.8 mph - N/A   Overcast
9:21 AM 35.6 °F 29.2 °F 32.0 °F 87% 29.81 in 10.0 mi NW 8.1 mph - N/A   Overcast
9:41 AM 35.6 °F 29.2 °F 32.0 °F 87% 29.81 in 10.0 mi WNW 8.1 mph - N/A   Mostly Cloudy
10:01 AM 37.4 °F 30.8 °F 32.0 °F 81% 29.82 in 10.0 mi WNW 9.2 mph - N/A   Mostly Cloudy
10:21 AM 37.4 °F 32.1 °F 30.2 °F 75% 29.82 in 10.0 mi WNW 6.9 mph - N/A   Overcast
10:41 AM 37.4 °F 29.3 °F 30.2 °F 75% 29.82 in 10.0 mi NW 12.7 mph 19.6 mph N/A   Scattered Clouds
11:01 AM 39.2 °F 31.6 °F 30.2 °F 70% 29.82 in 10.0 mi WNW 12.7 mph 19.6 mph N/A   Mostly Cloudy
11:21 AM 39.2 °F 31.2 °F 30.2 °F 70% 29.81 in 10.0 mi WNW 13.8 mph 23.0 mph N/A   Overcast
11:41 AM 41.0 °F 32.8 °F 28.4 °F 61% 29.82 in 10.0 mi WNW 16.1 mph 21.9 mph N/A   Overcast
12:01 PM 41.0 °F 33.1 °F 28.4 °F 61% 29.82 in 10.0 mi NW 15.0 mph 21.9 mph N/A   Overcast
12:21 PM 42.8 °F 35.1 °F 26.6 °F 53% 29.82 in 10.0 mi West 16.1 mph 23.0 mph N/A   Mostly Cloudy
12:41 PM 41.0 °F 33.1 °F 26.6 °F 57% 29.82 in 10.0 mi WNW 15.0 mph 20.7 mph N/A   Overcast
1:01 PM 42.8 °F 35.1 °F 26.6 °F 53% 29.82 in 10.0 mi WNW 16.1 mph 27.6 mph N/A   Overcast
1:21 PM 42.8 °F 34.8 °F 26.6 °F 53% 29.82 in 10.0 mi NW 17.3 mph 25.3 mph N/A   Overcast
1:41 PM 42.8 °F 34.8 °F 26.6 °F 53% 29.82 in 10.0 mi NW 17.3 mph 24.2 mph N/A   Overcast
2:01 PM 41.0 °F 32.8 °F 26.6 °F 57% 29.82 in 10.0 mi WNW 16.1 mph 23.0 mph N/A   Overcast
2:21 PM 42.8 °F 37.0 °F 26.6 °F 53% 29.83 in 10.0 mi WNW 10.4 mph 18.4 mph N/A   Overcast
3:01 PM 41.0 °F 33.1 °F 26.6 °F 57% 29.84 in 10.0 mi WNW 15.0 mph 18.4 mph N/A   Overcast
3:21 PM 41.0 °F 34.3 °F 28.4 °F 61% 29.84 in 10.0 mi WNW 11.5 mph 21.9 mph N/A   Overcast
3:41 PM 42.8 °F 35.8 °F 28.4 °F 57% 29.84 in 10.0 mi NW 13.8 mph - N/A   Scattered Clouds
4:01 PM 37.4 °F 30.3 °F 32.0 °F 81% 29.86 in 7.0 mi NW 10.4 mph 17.3 mph N/A   Mostly Cloudy
4:21 PM 37.4 °F 28.9 °F 33.8 °F 87% 29.87 in 10.0 mi WNW 13.8 mph 21.9 mph N/A   Mostly Cloudy
4:41 PM 39.2 °F 31.6 °F 33.8 °F 81% 29.87 in 10.0 mi WNW 12.7 mph 17.3 mph N/A   Scattered Clouds
5:01 PM 41.0 °F 33.5 °F 33.8 °F 76% 29.87 in 10.0 mi WNW 13.8 mph 20.7 mph N/A   Clear
5:21 PM 42.8 °F 35.4 °F 32.0 °F 66% 29.87 in 10.0 mi NNW 15.0 mph 19.6 mph N/A   Scattered Clouds
5:41 PM 39.2 °F 32.0 °F 30.2 °F 70% 29.88 in 10.0 mi NW 11.5 mph 17.3 mph N/A   Scattered Clouds
6:21 PM 37.4 °F 29.3 °F 32.0 °F 81% 29.90 in 5.0 mi NW 12.7 mph 20.7 mph N/A   Mostly Cloudy
6:41 PM 39.2 °F 32.5 °F 33.8 °F 81% 29.90 in 10.0 mi NW 10.4 mph 18.4 mph N/A   Scattered Clouds
7:01 PM 37.4 °F 26.6 °F 32.0 °F 81% 29.91 in 10.0 mi NW 21.9 mph 33.4 mph N/A   Scattered Clouds
7:21 PM 35.6 °F 28.0 °F 30.2 °F 81% 29.93 in 5.0 mi WNW 10.4 mph 24.2 mph N/A   Mostly Cloudy
7:41 PM 35.6 °F 29.2 °F 30.2 °F 81% 29.93 in 10.0 mi West 8.1 mph - N/A   Scattered Clouds
8:01 PM 35.6 °F 27.1 °F 32.0 °F 87% 29.93 in 10.0 mi WNW 12.7 mph - N/A   Clear
8:21 PM 35.6 °F 28.0 °F 32.0 °F 87% 29.93 in 10.0 mi WNW 10.4 mph - N/A   Scattered Clouds
8:41 PM 35.6 °F 28.6 °F 30.2 °F 81% 29.94 in 10.0 mi WNW 9.2 mph - N/A   Scattered Clouds
9:01 PM 35.6 °F 29.2 °F 30.2 °F 81% 29.95 in 10.0 mi WNW 8.1 mph - N/A   Clear
9:21 PM 35.6 °F 29.2 °F 30.2 °F 81% 29.96 in 10.0 mi WNW 8.1 mph - N/A   Clear
9:41 PM 33.8 °F 27.0 °F 30.2 °F 87% 29.97 in 10.0 mi WNW 8.1 mph - N/A   Clear
10:01 PM 33.8 °F 27.0 °F 30.2 °F 87% 29.98 in 10.0 mi WNW 8.1 mph - N/A   Clear
10:21 PM 33.8 °F 27.7 °F 28.4 °F 81% 29.98 in 10.0 mi WNW 6.9 mph - N/A   Clear
10:41 PM 33.8 °F 27.7 °F 28.4 °F 81% 29.99 in 10.0 mi WNW 6.9 mph - N/A   Clear
11:01 PM 32.0 °F 25.6 °F 28.4 °F 87% 29.99 in 10.0 mi West 6.9 mph - N/A   Clear
11:21 PM 32.0 °F 25.6 °F 28.4 °F 87% 29.99 in 10.0 mi West 6.9 mph - N/A   Clear
11:41 PM 32.0 °F 25.6 °F 28.4 °F 87% 30.00 in 10.0 mi West 6.9 mph - N/A   Clear